Location: Lombard
(41.8800°N, 88.0080°W)
Time: 09:22:06
(UTC-06:00)

Transit 2A Rocket - All Passes

Search period start: 29 January 2023 00:00
Search period end: 08 February 2023 00:00
Orbit: 585 x 915 km, 66.7° (Epoch: 29 January)

Date Brightness Start Highest point End Pass type
(mag) Time Alt. Az. Time Alt. Az. Time Alt. Az.
29 Jan - 01:15:21 10° SW 01:20:04 46° NW 01:25:16 10° NNE night (unlit)
29 Jan - 03:03:06 10° NW 03:04:11 11° NNW 03:05:17 10° NNW visible
29 Jan - 08:15:28 10° NNW 08:20:36 28° NE 08:25:48 10° ESE daylight
29 Jan - 09:57:38 10° NW 10:03:35 59° WSW 10:09:32 10° SSE daylight
29 Jan - 22:53:15 10° SE 22:55:16 12° ESE 22:57:22 10° ENE night (unlit)
30 Jan - 00:32:03 10° SSW 00:36:54 79° WNW 00:42:19 10° NNE night (unlit)
30 Jan - 02:17:28 10° WNW 02:20:31 15° NW 02:23:41 10° N night (unlit)
30 Jan - 07:32:53 10° N 07:37:08 20° NE 07:41:26 10° E daylight
30 Jan - 09:14:29 10° NNW 09:20:34 87° ENE 09:26:41 10° SSE daylight
30 Jan - 10:58:59 10° WNW 11:02:26 16° WSW 11:05:52 10° SW daylight
30 Jan - 23:49:10 10° SSW 23:53:54 59° ESE 23:59:10 10° NE night (unlit)
31 Jan - 01:32:59 10° W 01:36:57 23° NW 01:41:14 10° N night (unlit)
31 Jan - 06:50:35 10° N 06:53:31 14° NE 06:56:29 10° ENE daylight
31 Jan - 08:31:30 10° NNW 08:37:25 55° NE 08:43:25 10° SE daylight
31 Jan - 10:14:46 10° NW 10:19:43 27° WSW 10:24:40 10° SSW daylight
31 Jan - 23:06:46 10° S 23:11:04 33° ESE 23:15:45 10° NE night (unlit)
01 Feb - 00:49:01 10° WSW 00:53:33 35° NW 00:58:32 10° NNE night (unlit)
01 Feb - 07:48:39 10° NNW 07:54:09 36° NE 07:59:45 10° ESE daylight
01 Feb - 09:31:11 10° NW 09:36:53 44° WSW 09:42:36 10° S daylight
01 Feb - 22:25:03 10° SSE 22:28:21 18° ESE 22:31:51 10° ENE night (unlit)
02 Feb - 00:05:28 10° SW 00:10:18 58° NW 00:15:40 10° NNE night (unlit)
02 Feb - 01:52:00 10° WNW 01:54:13 12° NNW 01:56:30 10° N night (unlit)
02 Feb - 07:05:56 10° N 07:10:46 24° NE 07:15:40 10° E daylight
02 Feb - 08:47:53 10° NW 08:53:56 72° WSW 09:00:00 10° SSE daylight
02 Feb - 10:34:09 10° W 10:35:32 11° W 10:36:56 10° WSW daylight
02 Feb - 23:22:20 10° SSW 23:27:12 83° ESE 23:32:38 10° NNE night (unlit)
03 Feb - 01:07:03 10° W 01:10:35 18° NW 01:14:20 10° N night (unlit)
03 Feb - 06:23:25 10° N 06:27:14 17° NE 06:31:05 10° ENE visible
03 Feb - 08:04:49 10° NNW 08:10:52 73° ENE 08:16:58 10° SE daylight
03 Feb - 09:48:42 10° WNW 09:52:54 20° WSW 09:57:05 10° SSW daylight
03 Feb - 22:39:37 10° S 22:44:16 46° ESE 22:49:24 10° NE night (unlit)
04 Feb - 00:22:47 10° WSW 00:27:05 27° NW 00:31:45 10° NNE night (unlit)
04 Feb - 05:41:22 10° N 05:43:33 12° NNE 05:45:46 10° NE visible
04 Feb - 07:21:53 10° NNW 07:27:41 46° NE 07:33:31 10° SE daylight
04 Feb - 09:04:48 10° NW 09:10:08 33° WSW 09:15:27 10° S daylight
04 Feb - 21:57:27 10° SSE 22:01:28 26° ESE 22:05:49 10° NE night (unlit)
04 Feb - 23:39:00 10° WSW 23:43:44 43° NW 23:48:58 10° NNE night (unlit)
05 Feb - 01:27:22 10° NW 01:27:58 10° NNW 01:28:34 10° NNW night (unlit)
05 Feb - 06:39:04 10° NNW 06:44:21 31° NE 06:49:42 10° ESE daylight
05 Feb - 08:21:21 10° NW 08:27:16 54° WSW 08:33:08 10° S daylight
05 Feb - 21:16:12 10° SE 21:18:49 14° ESE 21:21:33 10° ENE night (unlit)
05 Feb - 22:55:37 10° SW 23:00:33 72° WNW 23:06:02 10° NNE night (unlit)
06 Feb - 00:41:19 10° WNW 00:44:15 15° NW 00:47:18 10° N night (unlit)
06 Feb - 05:56:25 10° N 06:00:54 21° NE 06:05:25 10° E visible
06 Feb - 07:38:10 10° NNW 07:44:16 87° WSW 07:50:21 10° SSE daylight
06 Feb - 09:23:02 10° WNW 09:26:02 14° WSW 09:29:01 10° SW daylight
06 Feb - 22:12:39 10° SSW 22:17:30 66° ESE 22:22:54 10° NE night (unlit)
06 Feb - 23:56:43 10° W 00:00:40 22° NW 00:04:53 10° N night (unlit)
07 Feb - 05:14:01 10° N 05:17:17 15° NE 05:20:36 10° ENE visible
07 Feb - 06:55:08 10° NNW 07:01:08 60° NE 07:07:09 10° SE daylight
07 Feb - 08:38:34 10° NW 08:43:20 24° WSW 08:48:04 10° SSW daylight
07 Feb - 21:30:09 10° S 21:34:38 37° ESE 21:39:33 10° NE night (unlit)
07 Feb - 23:12:40 10° WSW 23:17:13 33° NW 23:22:12 10° NNE night (unlit)
